Weather History for Gillette, WY

Change the Weather History Date:

Thursday, October 25, 2012

  Actual Average Record
Temperature  
Mean Temperature 23 °F 42 °F  
Max Temperature 27 °F 55 °F 79 °F (1979)
Min Temperature 19 °F 29 °F 7 °F (1975)
Degree Days  
Heating Degree Days 42 23  
Month to date heating degree days 507 470  
Since 1 July heating degree days 665 765  
Cooling Degree Days 0 0  
Month to date cooling degree days 0 0  
Year to date cooling degree days 795 500  
Moisture  
Dew Point 23 °F    
Average Humidity 91    
Maximum Humidity 100    
Minimum Humidity 81    
Precipitation  
Precipitation 0.00 in 0.03 in 0.31 in (1970)
Month to date precipitation 0.89 1.12  
Year to date precipitation 8.47 12.79  
Sea Level Pressure  
Sea Level Pressure 30.27 in    
Wind  
Wind Speed 8 mph (North)    
Max Wind Speed 16 mph    
Max Gust Speed 21 mph    
Visibility 10 miles    
Events      
T = Trace of Precipitation, MM = Missing Value Source: NWS Daily Summary

Daily Weather History Graph

Daily Weather History Graph

Search for Another Location

Airport:

Trip Planner

Search our weather history database for the weather conditions in past years. The results will help you decide how hot, cold, wet, or windy it might be!

Date:

Astronomy

Oct. 25, 2012 Rise Set
Actual Time 7:30 AM MDT 6:00 PM MDT
Civil Twilight 7:00 AM MDT 6:30 PM MDT
Nautical Twilight 6:26 AM MDT 7:04 PM MDT
Astronomical Twilight 5:53 AM MDT 7:38 PM MDT
Moon 3:55 PM MDT (10/25) 3:21 AM MDT (10/25)
Length of Visible Light 11h 29m
Length of Day
10h 30m
Waxing Gibbous, 85% of the Moon is Illuminated
Oct 25
Waxing Gibbous
Oct 29
Full
Nov 6
Last Quarter
Nov 13
New
Nov 20
First Quarter

Hourly Weather History & Observations

Time (MDT) Temp. Windchill Dew Point Humidity Pressure Visibility Wind Dir Wind Speed Gust Speed Precip Events Conditions
12:53 AM 21.9 °F - 21.0 °F 96% 30.23 in 10.0 mi Calm Calm - N/A   Clear
1:53 AM 19.9 °F - 19.0 °F 96% 30.24 in 10.0 mi Calm Calm - N/A   Scattered Clouds
2:04 AM 19.4 °F - 17.6 °F 93% 30.12 in 10.0 mi Calm Calm - N/A   Mostly Cloudy
2:41 AM 21.2 °F - 19.4 °F 93% 30.13 in 10.0 mi Calm Calm - N/A   Overcast
2:50 AM 21.2 °F - 19.4 °F 93% 30.14 in 10.0 mi Calm Calm - N/A   Overcast
2:53 AM 21.9 °F - 19.9 °F 92% 30.25 in 10.0 mi Calm Calm - N/A   Overcast
3:09 AM 24.8 °F - 23.0 °F 93% 30.14 in 10.0 mi Calm Calm - N/A   Overcast
3:53 AM 24.1 °F 19.7 °F 23.0 °F 96% 30.24 in 10.0 mi SSW 3.5 mph - N/A   Overcast
4:18 AM 24.8 °F - 24.8 °F 100% 30.13 in 10.0 mi Calm Calm - N/A   Overcast
4:30 AM 24.8 °F - 24.8 °F 100% 30.13 in 9.0 mi Calm Calm - N/A   Overcast
4:42 AM 24.8 °F - 24.8 °F 100% 30.13 in 8.0 mi Calm Calm - N/A   Overcast
4:53 AM 26.1 °F - 25.0 °F 96% 30.23 in 10.0 mi Calm Calm - N/A   Overcast
5:53 AM 27.0 °F 23.0 °F 25.0 °F 92% 30.24 in 10.0 mi NNE 3.5 mph - N/A   Overcast
6:37 AM 26.6 °F 22.6 °F 24.8 °F 93% 30.16 in 10.0 mi NNW 3.5 mph - N/A   Overcast
7:11 AM 26.6 °F 17.5 °F 24.8 °F 93% 30.17 in 9.0 mi North 9.2 mph - N/A   Overcast
7:29 AM 26.6 °F 18.2 °F 24.8 °F 93% 30.17 in 10.0 mi NNW 8.1 mph - N/A   Overcast
7:51 AM 24.8 °F 15.3 °F 24.8 °F 100% 30.18 in 10.0 mi NNW 9.2 mph - N/A   Overcast
7:53 AM 25.0 °F 16.3 °F 24.1 °F 96% 30.29 in 10.0 mi North 8.1 mph - N/A   Overcast
8:35 AM 24.8 °F 16.9 °F 24.8 °F 100% 30.18 in 10.0 mi North 6.9 mph - N/A   Overcast
8:53 AM 25.0 °F 18.1 °F 24.1 °F 96% 30.31 in 10.0 mi North 5.8 mph - N/A   Overcast
9:53 AM 26.1 °F 17.6 °F 25.0 °F 96% 30.32 in 10.0 mi North 8.1 mph - N/A   Overcast
10:53 AM 26.1 °F 16.8 °F 24.1 °F 92% 30.34 in 10.0 mi North 9.2 mph - N/A   Overcast
11:36 AM 24.8 °F 15.3 °F 24.8 °F 100% 30.23 in 10.0 mi North 9.2 mph - N/A   Overcast
11:53 AM 24.1 °F 13.7 °F 23.0 °F 96% 30.37 in 10.0 mi North 10.4 mph - N/A   Overcast
12:28 PM 24.8 °F 14.6 °F 23.0 °F 93% 30.22 in 10.0 mi North 10.4 mph - N/A   Overcast
12:53 PM 25.0 °F 15.5 °F 23.0 °F 92% 30.35 in 10.0 mi North 9.2 mph - N/A   Overcast
1:53 PM 25.0 °F 16.3 °F 23.0 °F 92% 30.36 in 6.0 mi North 8.1 mph - N/A   Overcast
2:53 PM 25.0 °F 15.5 °F 23.0 °F 92% 30.36 in 10.0 mi North 9.2 mph - N/A   Overcast
3:28 PM 24.8 °F 15.3 °F 23.0 °F 93% 30.24 in 10.0 mi North 9.2 mph - N/A   Overcast
3:53 PM 25.0 °F 14.2 °F 23.0 °F 92% 30.38 in 10.0 mi North 11.5 mph - N/A   Overcast
4:07 PM 24.8 °F 15.3 °F 23.0 °F 93% 30.25 in 10.0 mi North 9.2 mph - N/A   Overcast
4:53 PM 25.0 °F 15.5 °F 21.9 °F 88% 30.38 in 10.0 mi North 9.2 mph - N/A   Overcast
5:53 PM 25.0 °F 14.8 °F 21.9 °F 88% 30.40 in 10.0 mi North 10.4 mph - N/A   Overcast
6:53 PM 24.1 °F 13.7 °F 21.0 °F 88% 30.42 in 10.0 mi North 10.4 mph - N/A   Overcast
7:53 PM 24.1 °F 16.0 °F 21.0 °F 88% 30.45 in 10.0 mi NNW 6.9 mph - N/A   Overcast
8:53 PM 24.1 °F 13.7 °F 19.9 °F 84% 30.45 in 10.0 mi NNW 10.4 mph - N/A   Overcast
9:53 PM 23.0 °F 13.1 °F 19.4 °F 86% 30.33 in 10.0 mi North 9.2 mph - N/A   Overcast
10:53 PM 24.1 °F 13.7 °F 19.0 °F 81% 30.48 in 10.0 mi NW 10.4 mph - N/A   Overcast
11:53 PM 24.1 °F 13.7 °F 19.0 °F 81% 30.50 in 10.0 mi NW 10.4 mph - N/A   Overcast